Temperature
18 18 18 18 18 18 18 18 18 18 18 18 18 18 18 18 18 18 18 18 18 18 18 18 18 18 18 18 18 17 17 17 18 17 17 17 17 17 17 16 16 16 15
18 18 18 18 18 18 18 18 18 18 18 18 18 18 18 18 18 18 18 18 18 18 18 18 18 18 18 18 18 18 18 18 18 17 17 17 17 17 17 16 16 16 16
18 18 18 18 18 18 18 18 18 18 18 18 18 18 18 18 18 17 18 18 18 18 19 19 18 18 18 18 18 18 18 18 18 17 17 18 17 17 17 17 16 16 16
18 18 18 18 18 18 18 18 18 18 18 18 18 18 18 18 18 18 18 18 18 18 19 18 19 19 18 18 18 18 18 18 18 18 18 18 17 17 17 17 17 16 15
18 18 18 18 18 18 18 18 18 18 18 18 18 18 18 18 18 18 19 18 19 18 18 18 18 19 19 18 18 18 18 18 18 18 18 18 17 17 17 17 17 16 16
18 18 18 18 18 18 18 18 18 18 18 18 18 18 18 18 18 19 19 19 19 19 19 19 18 18 19 19 18 18 18 18 18 18 17 18 17 17 17 17 16 16 16
19 18 17 17 17 17 18 18 18 17 17 17 17 18 19 19 19 19 19 19 19 19 19 19 18 18 18 18 18 18 18 18 18 18 17 17 17 17 17 16 16 16 16
19 19 18 17 17 17 17 17 17 17 17 17 17 18 19 20 20 19 19 18 18 19 19 19 18 18 18 18 18 18 18 18 18 18 18 17 17 17 17 16 16 16 16
19 18 17 16 16 16 17 17 17 16 17 16 16 16 17 19 19 19 19 18 18 18 18 18 18 18 18 18 18 18 18 18 18 18 18 18 17 17 17 17 16 16 16
17 16 16 15 15 16 16 16 16 16 16 16 16 15 15 16 15 17 18 18 18 17 17 17 18 17 17 18 18 18 18 18 18 18 18 18 18 17 17 17 16 16 16
15 15 15 15 15 15 15 16 16 16 16 15 16 15 15 15 15 15 16 17 17 17 17 17 17 17 17 17 17 17 18 18 18 18 17 17 17 17 17 17 16 16 16
14 14 14 14 14 15 15 15 15 15 15 15 15 15 15 15 15 15 15 16 16 17 17 17 17 17 17 17 17 17 17 18 18 17 17 17 17 17 17 17 16 16 16
14 14 14 14 15 15 15 15 15 15 15 15 15 15 15 15 15 15 15 15 16 17 16 16 16 16 16 16 16 16 17 17 17 17 17 17 17 17 17 17 17 16 16
14 14 14 14 15 15 15 15 15 15 15 15 14 15 15 15 15 15 15 15 16 17 16 16 15 15 15 15 16 16 16 17 17 16 16 16 17 17 17 17 16 16 16
14 14 14 14 14 14 14 14 14 14 14 14 14 14 14 14 14 14 14 14 15 16 17 16 15 15 14 14 15 15 15 15 15 15 15 16 16 16 16 16 16 16 15
13 13 13 13 13 13 13 13 13 14 14 14 14 14 14 14 14 14 14 14 14 15 16 15 14 14 14 14 14 15 14 14 14 15 15 15 16 15 16 16 16 16 15
13 13 12 12 12 12 12 12 13 13 13 13 13 13 13 13 13 14 14 14 14 14 14 15 14 14 14 14 14 15 14 14 14 14 14 15 15 15 16 16 16 16 16
12 12 12 12 12 12 12 12 12 12 12 12 12 12 12 12 12 12 13 13 13 13 13 14 14 14 14 14 14 14 15 14 14 14 14 14 14 15 15 15 16 16 15
12 12 12 11 12 12 12 12 12 12 12 12 12 12 12 12 12 12 12 13 13 13 13 13 13 13 13 14 14 14 14 14 14 14 13 14 14 14 14 15 15 15 15
12 11 11 11 11 11 11 11 11 11 11 11 11 11 11 11 11 11 12 12 13 13 13 13 13 13 13 13 13 13 13 14 13 13 13 13 13 13 14 14 15 15 15
11 11 11 11 11 11 11 11 11 11 11 11 11 11 11 11 12 12 12 12 12 13 13 14 13 13 13 12 12 12 13 13 13 13 13 12 13 13 13 14 14 14 13
11 11 11 11 11 12 12 11 11 11 11 11 11 11 11 11 11 12 12 12 12 12 12 13 13 13 12 12 12 12 12 12 12 12 12 12 12 12 13 13 13 13 13
11 11 11 11 11 12 12 11 11 11 11 11 11 11 12 11 11 11 11 11 11 12 12 11 12 12 12 12 12 12 12 12 11 11 11 11 11 11 12 12 12 12 12
11 11 11 11 12 12 11 11 11 11 11 11 10 10 10 11 11 11 11 11 11 11 11 11 11 11 12 12 12 12 12 12 12 11 11 11 11 11 11 12 12 12 12
11 11 11 11 12 11 11 11 11 11 10 10 10 10 10 10 11 11 10 11 11 11 11 11 11 11 11 12 12 12 12 13 12 11 11 11 10 11 11 11 11 12 12
11 11 11 11 11 11 11 11 11 11 10 10 10 10 10 10 10 10 10 10 10 10 10 11 11 11 11 11 11 11 11 12 12 11 11 11 11 11 10 10 10 11 11
Wind_Speed
9 9 8 8 10 9 8 9 9 8 9 10 10 10 9 9 10 10 9 11 15 17 16 15 16 16 17 18 17 18 17 17 18 19 20 21 21 20 20 21 22 22 21
10 9 10 9 10 10 9 8 9 8 8 8 10 10 10 10 9 10 12 9 15 17 16 15 16 16 17 17 18 19 18 17 18 18 19 19 20 20 20 20 21 22 22
13 11 11 10 10 11 10 9 10 9 9 9 10 10 9 9 9 10 12 11 11 17 20 18 17 17 18 18 19 20 19 18 19 19 19 19 19 19 20 20 21 22 23
16 12 12 12 11 11 10 9 10 10 9 9 8 9 9 8 10 10 11 12 11 11 14 19 18 18 18 18 19 20 20 19 20 20 19 19 19 19 19 19 20 21 23
16 14 13 12 12 10 10 10 10 9 9 9 9 9 9 10 11 12 12 12 13 12 13 12 18 18 18 19 20 21 21 21 21 20 20 20 20 20 20 19 19 20 23
15 15 12 15 14 11 9 9 10 9 9 9 10 11 12 13 13 14 14 13 13 15 16 15 13 16 20 20 21 22 23 21 20 20 21 21 21 21 21 21 20 20 22
13 12 14 14 12 11 10 9 8 10 10 9 11 12 13 14 15 13 13 13 15 15 16 15 14 14 12 20 21 21 22 22 21 21 21 22 23 23 22 22 22 21 22
13 12 13 12 11 10 10 9 8 9 10 8 9 10 11 11 10 11 11 11 13 13 14 15 15 13 13 11 12 18 19 20 21 22 22 23 23 22 23 23 22 22 22
12 9 8 7 7 8 8 8 8 9 9 8 7 6 7 9 8 7 8 10 11 10 11 11 12 12 13 12 10 15 17 17 18 20 21 21 22 22 23 23 24 23 23
9 9 8 6 6 7 7 8 7 6 7 7 6 6 8 7 6 8 9 9 9 9 9 8 9 10 11 11 11 8 12 15 15 16 18 20 21 22 22 22 25 25 24
6 7 8 8 6 6 6 7 6 6 5 6 5 5 7 7 9 8 10 10 8 8 8 8 7 7 8 10 9 13 15 16 15 14 15 15 14 14 15 18 22 23 25
6 8 8 8 7 6 7 8 7 6 5 5 5 5 6 6 6 7 9 9 8 7 7 6 6 6 6 8 10 3 9 12 12 11 11 10 10 11 13 16 19 22 25
7 9 9 9 8 8 7 7 7 6 5 5 5 5 4 5 5 6 7 7 6 5 4 4 3 4 5 6 6 0 8 10 10 10 10 10 12 13 15 18 21 23 25
7 9 10 9 9 9 8 6 5 4 4 4 4 3 2 2 3 3 3 5 6 4 2 2 3 2 4 5 5 7 6 8 8 8 9 11 13 15 16 18 20 23 23
6 7 7 8 8 7 6 5 4 4 4 2 1 2 3 3 4 3 3 4 5 6 5 3 4 3 5 5 6 7 5 7 7 8 10 11 13 15 16 17 19 21 21
6 8 8 8 7 5 4 4 5 3 2 2 2 3 3 3 4 4 4 4 5 6 6 5 5 7 8 7 5 7 6 4 8 9 9 10 11 14 14 13 14 18 20
5 7 8 7 6 5 4 3 3 3 3 4 3 4 4 6 5 5 5 5 4 6 8 7 5 6 7 7 5 4 4 5 6 9 8 9 10 11 10 9 10 13 17
4 5 6 6 6 6 4 4 5 5 6 6 5 5 5 5 6 6 6 6 5 5 7 9 8 7 7 8 8 6 5 5 5 8 8 8 8 7 6 6 7 11 16
4 5 5 6 6 6 6 6 7 7 7 7 7 7 6 5 6 6 7 7 7 6 5 6 7 6 7 9 10 7 6 5 5 6 8 8 6 5 4 3 5 10 16
6 7 7 8 8 8 8 9 9 9 9 8 8 7 6 7 7 7 6 7 8 7 7 6 7 8 8 11 11 11 9 5 3 4 4 2 3 4 3 4 7 11 15
8 8 9 10 10 9 9 9 10 10 10 10 9 9 9 8 8 7 7 9 9 8 8 8 9 9 10 11 11 10 11 8 2 1 3 1 2 3 3 6 7 11 14
8 8 10 11 10 10 10 10 8 10 10 10 10 9 9 8 6 6 7 8 10 10 11 10 10 10 11 10 9 9 9 7 4 3 1 2 3 3 2 2 8 12 13
8 10 11 11 11 10 10 10 8 9 10 9 9 8 9 10 9 8 4 4 6 6 6 8 11 11 12 12 11 10 8 6 5 5 4 4 5 4 3 4 7 10 12
7 8 10 11 10 9 9 8 4 8 9 8 8 8 8 10 10 10 8 8 8 8 8 9 9 9 10 11 11 8 5 1 3 4 4 4 5 5 4 3 3 5 9
6 6 8 10 10 8 6 4 2 7 7 7 7 7 7 9 12 15 7 7 7 7 2 1 3 6 6 6 10 11 10 8 5 5 3 2 2 2 4 3 3 2 3
6 6 7 8 9 8 5 2 6 5 6 6 6 6 11 10 12 15 9 9 8 8 9 6 3 4 5 7 9 12 11 10 8 6 6 3 1 1 2 2 1 0 0
Wind_Direction
241 242 243 248 255 250 241 239 252 260 267 266 263 263 273 271 268 271 269 233 238 244 245 246 243 241 240 241 237 233 235 236 234 230 229 232 233 233 231 229 227 222 215
244 247 243 239 245 249 254 261 260 262 261 262 268 271 273 275 269 265 269 259 232 235 239 242 243 242 239 238 236 235 234 232 232 229 226 228 229 230 231 230 227 224 216
240 241 246 243 241 242 243 248 255 257 258 256 255 261 264 268 270 266 269 272 258 227 223 232 238 237 236 236 237 235 231 226 226 227 224 224 226 228 229 228 227 225 218
252 248 248 247 244 245 245 245 253 259 260 264 271 276 276 271 263 262 260 255 260 263 230 217 226 232 233 233 235 233 230 228 225 224 222 222 223 224 227 226 225 224 219
263 260 260 259 255 251 253 256 253 261 268 270 271 268 269 265 266 263 262 264 262 257 258 222 212 226 230 231 230 230 230 230 226 223 222 222 223 222 225 226 225 223 219
279 274 264 261 259 256 254 257 266 262 266 269 278 281 274 269 265 264 262 260 257 256 254 253 235 224 218 225 229 230 231 231 227 223 222 222 224 223 223 225 225 223 218
271 271 267 265 260 259 257 256 260 264 264 272 280 282 277 269 263 261 260 265 264 260 258 254 245 243 221 215 224 232 234 234 232 226 225 223 224 223 220 222 223 221 217
253 255 252 253 256 253 248 248 252 273 280 278 282 290 289 281 258 252 252 253 259 263 258 246 237 233 238 240 221 217 230 237 237 230 226 226 225 223 220 221 223 220 217
249 237 224 225 237 246 247 251 258 262 274 272 263 267 285 293 315 277 261 259 261 263 261 255 239 231 234 237 238 210 215 230 236 234 230 228 227 227 224 222 222 219 214
228 210 195 194 220 245 249 250 249 256 259 267 261 251 256 271 275 285 274 259 249 254 258 256 250 237 234 236 229 245 210 224 232 238 238 235 230 229 226 225 225 218 212
200 195 178 177 193 226 240 242 232 243 250 266 270 267 266 264 255 258 276 282 279 265 250 240 244 248 247 246 247 239 206 220 232 242 248 243 232 228 230 231 231 224 216
191 193 183 178 189 207 217 225 231 232 248 266 273 267 262 261 262 258 269 282 285 274 261 251 248 250 256 262 256 193 196 221 227 229 234 238 240 241 243 243 240 234 225
196 195 191 186 188 195 211 221 223 235 237 254 267 275 275 276 279 284 285 291 287 285 283 282 288 281 280 291 306 260 222 217 217 220 229 238 243 243 244 244 242 238 231
186 179 188 185 182 186 199 204 208 212 226 243 262 299 300 308 317 330 315 313 309 302 295 351 331 319 341 328 344 293 231 188 206 226 238 246 252 252 249 247 244 238 232
155 161 166 167 166 172 179 187 190 205 220 247 294 309 311 323 319 321 312 319 320 318 322 342 337 336 325 326 328 301 261 176 209 229 241 250 256 259 259 254 242 232 224
156 156 153 147 143 147 161 189 178 161 137 70 31 8 351 340 330 326 322 313 303 300 301 311 317 327 328 312 307 311 298 191 225 234 245 253 258 263 267 266 244 223 212
152 145 137 135 136 139 142 157 141 126 102 77 55 41 33 23 10 359 353 339 319 305 293 297 304 323 329 324 311 284 262 243 228 222 240 255 261 268 279 275 243 211 195
164 143 137 133 134 130 130 134 121 97 84 75 65 58 50 50 35 16 352 346 334 319 307 312 319 326 328 329 320 292 258 245 232 207 220 243 257 269 276 263 221 192 179
111 113 117 121 121 120 118 106 92 82 78 75 73 73 62 45 27 18 358 355 347 352 351 334 340 346 344 346 336 319 280 254 235 189 204 225 241 254 243 216 176 168 165
113 112 113 113 113 109 103 95 89 85 85 83 80 75 61 42 22 2 9 14 11 16 34 27 18 11 7 1 0 349 334 301 239 180 179 211 210 221 203 166 150 148 148
119 117 119 116 113 108 98 96 98 92 90 90 83 73 63 51 30 6 14 16 16 17 31 34 31 24 17 9 7 354 346 334 302 165 169 194 239 238 187 170 158 149 149
122 125 121 112 104 94 74 66 84 94 89 87 86 87 88 64 75 63 37 27 20 22 21 17 29 22 16 7 359 1 1 4 2 4 31 38 351 317 296 194 147 151 156
128 130 123 111 101 97 91 76 58 93 90 82 76 67 66 57 32 50 84 151 71 43 359 343 23 12 12 6 349 1 19 27 28 2 23 32 6 343 352 49 127 155 161
127 133 127 117 114 116 109 102 90 101 96 91 83 77 69 54 28 4 37 45 44 41 22 19 12 5 13 356 344 338 344 83 99 59 47 40 11 1 3 42 68 156 168
130 133 124 125 127 134 142 150 216 124 116 103 84 61 55 55 16 348 16 28 26 21 119 176 299 293 286 320 350 360 1 358 34 65 59 66 35 16 14 25 29 45 174
143 134 124 131 135 142 154 202 274 159 137 137 124 110 71 42 16 360 11 20 15 0 347 348 332 334 356 17 19 16 10 6 10 36 29 9 47 93 74 34 13 287 36
Height
1547 1547 1546 1545 1546 1547 1546 1545 1545 1544 1544 1544 1544 1544 1543 1542 1541 1542 1541 1540 1539 1538 1537 1536 1536 1536 1536 1536 1536 1537 1538 1539 1539 1540 1540 1540 1541 1541 1542 1543 1544 1545 1547
1544 1544 1542 1542 1542 1543 1543 1542 1542 1541 1540 1539 1539 1539 1538 1539 1537 1537 1537 1536 1534 1534 1533 1532 1532 1532 1531 1531 1532 1532 1533 1534 1535 1535 1535 1536 1536 1537 1537 1538 1539 1540 1542
1540 1539 1539 1539 1539 1539 1539 1538 1537 1537 1536 1536 1535 1535 1534 1534 1533 1532 1531 1531 1531 1530 1529 1528 1528 1527 1527 1527 1527 1528 1528 1529 1530 1530 1531 1531 1532 1532 1533 1533 1534 1535 1537
1538 1537 1537 1536 1536 1535 1535 1534 1533 1534 1533 1532 1531 1530 1529 1528 1527 1527 1527 1526 1526 1526 1526 1524 1523 1523 1523 1523 1523 1524 1524 1525 1525 1526 1526 1527 1528 1528 1529 1529 1530 1531 1532
1534 1535 1534 1533 1532 1531 1531 1531 1531 1529 1528 1527 1526 1525 1524 1523 1522 1522 1522 1521 1521 1520 1520 1520 1518 1518 1518 1518 1519 1519 1520 1520 1521 1521 1521 1522 1523 1524 1525 1525 1526 1526 1527
1528 1529 1529 1530 1529 1527 1525 1525 1524 1523 1523 1522 1521 1519 1518 1517 1516 1516 1515 1514 1514 1514 1514 1515 1513 1513 1512 1513 1514 1514 1515 1515 1515 1516 1516 1517 1518 1519 1520 1521 1522 1522 1523
1519 1521 1522 1524 1523 1522 1520 1519 1519 1519 1519 1519 1516 1514 1512 1511 1509 1508 1507 1507 1507 1507 1507 1507 1507 1507 1508 1507 1508 1508 1509 1509 1510 1510 1511 1512 1513 1514 1515 1516 1517 1517 1518
1509 1510 1511 1513 1515 1515 1514 1514 1513 1514 1515 1514 1512 1509 1506 1505 1502 1501 1501 1500 1499 1499 1499 1499 1499 1499 1501 1502 1503 1503 1503 1504 1504 1504 1505 1506 1507 1508 1509 1510 1511 1512 1513
1498 1498 1499 1501 1504 1507 1508 1509 1508 1508 1509 1508 1506 1505 1502 1498 1497 1497 1496 1494 1493 1492 1492 1492 1493 1493 1494 1495 1497 1498 1498 1499 1499 1499 1499 1500 1501 1503 1504 1505 1506 1506 1507
1487 1486 1486 1489 1495 1499 1501 1503 1504 1503 1502 1502 1501 1498 1497 1495 1495 1492 1491 1490 1488 1486 1486 1486 1487 1487 1488 1489 1490 1491 1492 1493 1493 1494 1494 1494 1495 1497 1498 1498 1499 1500 1500
1480 1479 1478 1481 1486 1491 1495 1497 1498 1498 1497 1497 1495 1494 1492 1491 1490 1489 1486 1485 1483 1482 1482 1482 1482 1483 1484 1484 1485 1485 1485 1486 1486 1487 1488 1489 1489 1489 1490 1491 1492 1492 1493
1475 1476 1476 1478 1481 1486 1490 1492 1493 1493 1493 1492 1491 1490 1488 1487 1486 1485 1483 1481 1478 1478 1478 1478 1478 1479 1479 1479 1480 1479 1479 1479 1479 1480 1481 1482 1482 1482 1483 1484 1484 1484 1485
1471 1473 1474 1476 1479 1483 1486 1488 1489 1489 1489 1489 1488 1487 1485 1484 1483 1482 1481 1478 1476 1475 1475 1474 1473 1473 1473 1473 1473 1472 1472 1472 1473 1473 1474 1476 1476 1475 1475 1474 1474 1475 1476
1468 1470 1473 1475 1477 1480 1483 1484 1485 1485 1486 1486 1485 1484 1483 1482 1481 1480 1479 1478 1475 1474 1473 1472 1471 1469 1467 1467 1466 1466 1466 1466 1466 1467 1468 1469 1469 1468 1467 1466 1466 1466 1468
1467 1468 1471 1473 1475 1478 1479 1480 1481 1482 1483 1483 1482 1481 1482 1481 1481 1480 1479 1477 1476 1474 1472 1472 1470 1468 1465 1463 1462 1462 1462 1461 1461 1462 1463 1463 1463 1462 1461 1459 1458 1458 1459
1467 1468 1471 1473 1474 1476 1477 1478 1480 1480 1480 1480 1480 1480 1481 1480 1480 1480 1479 1477 1476 1475 1473 1471 1468 1466 1463 1462 1460 1458 1458 1458 1457 1458 1458 1457 1457 1456 1455 1453 1451 1451 1452
1469 1470 1471 1473 1474 1475 1476 1477 1479 1478 1479 1479 1479 1480 1480 1480 1480 1481 1479 1478 1476 1474 1472 1469 1467 1464 1461 1460 1458 1456 1455 1454 1453 1453 1452 1452 1452 1452 1451 1449 1447 1446 1447
1470 1471 1472 1473 1474 1475 1476 1478 1478 1478 1478 1478 1479 1480 1480 1481 1480 1480 1480 1479 1476 1472 1470 1467 1465 1463 1460 1458 1456 1453 1451 1450 1449 1448 1448 1448 1448 1448 1447 1445 1444 1443 1444
1471 1472 1473 1473 1474 1475 1477 1478 1478 1478 1478 1479 1480 1481 1482 1482 1482 1482 1481 1479 1475 1472 1469 1466 1464 1461 1459 1457 1453 1451 1448 1446 1445 1444 1444 1445 1445 1444 1443 1442 1441 1441 1441
1472 1473 1474 1474 1475 1477 1478 1479 1479 1479 1480 1481 1481 1483 1484 1484 1483 1483 1482 1478 1475 1472 1470 1467 1465 1462 1460 1456 1452 1449 1446 1444 1442 1442 1441 1442 1442 1441 1441 1440 1439 1439 1441
1474 1475 1476 1476 1477 1479 1481 1482 1482 1483 1483 1484 1484 1485 1484 1484 1484 1483 1481 1479 1476 1474 1472 1469 1468 1465 1462 1458 1453 1449 1445 1441 1440 1439 1439 1439 1439 1440 1440 1439 1439 1439 1441
1477 1478 1479 1479 1480 1480 1482 1483 1485 1486 1486 1487 1488 1488 1487 1487 1486 1484 1482 1480 1478 1476 1474 1472 1470 1468 1464 1461 1456 1451 1447 1442 1439 1437 1437 1437 1437 1438 1439 1440 1440 1440 1442
1478 1480 1481 1481 1481 1482 1484 1486 1488 1489 1490 1490 1491 1491 1490 1489 1488 1488 1486 1483 1481 1478 1476 1474 1473 1471 1468 1464 1458 1454 1450 1445 1442 1440 1437 1437 1437 1438 1438 1440 1441 1443 1444
1480 1481 1482 1483 1484 1485 1487 1489 1490 1491 1492 1492 1493 1492 1491 1490 1489 1489 1488 1486 1483 1480 1477 1476 1475 1473 1469 1464 1460 1456 1453 1449 1446 1444 1441 1440 1438 1438 1439 1440 1441 1444 1446
1480 1482 1483 1484 1485 1487 1488 1490 1491 1493 1494 1494 1494 1493 1493 1491 1490 1489 1488 1486 1484 1482 1480 1477 1475 1473 1470 1466 1461 1458 1455 1452 1450 1448 1446 1444 1442 1440 1440 1441 1442 1443 1445
1479 1481 1483 1484 1486 1487 1489 1490 1491 1494 1494 1495 1494 1493 1492 1491 1490 1488 1487 1485 1483 1481 1480 1479 1477 1474 1471 1468 1464 1460 1458 1455 1452 1451 1450 1448 1446 1445 1443 1443 1442 1442 1443